Weather History for KATW - January, 2014

Change the Weather History Date:

Monday, January 6, 2014

  Actual Average Record
Temperature  
Mean Temperature -12 °F -  
Max Temperature -7 °F 22 °F 45 °F (1961)
Min Temperature -18 °F 7 °F -21 °F (1968)
Degree Days  
Heating Degree Days 78    
Moisture  
Dew Point -26 °F    
Average Humidity 59    
Maximum Humidity 64    
Minimum Humidity 53    
Precipitation  
Precipitation 0.00 in - - ()
Sea Level Pressure  
Sea Level Pressure 30.03 in    
Wind  
Wind Speed 20 mph (West)    
Max Wind Speed 32 mph    
Max Gust Speed 32 mph    
Visibility 9 miles    
Events Snow    
Averages and records for this station are not official NWS values.
T = Trace of Precipitation, MM = Missing Value Source: NWS Daily Summary

Daily Weather History Graph

Daily Weather History Graph

Search for Another Location

Airport or City:

Trip Planner

Search our weather history database for the weather conditions in past years. The results will help you decide how hot, cold, wet, or windy it might be!

Date:

Astronomy

Jan. 06, 2014 Rise Set
Actual Time 7:29 AM CST 4:30 PM CST
Civil Twilight 6:56 AM CST 5:03 PM CST
Nautical Twilight 6:20 AM CST 5:39 PM CST
Astronomical Twilight 5:45 AM CST 6:15 PM CST
Moon 10:30 AM CST (1/6) 11:19 PM CST (1/6)
Length of Visible Light 10h 06m
Length of Day
9h 01m
Waxing Crescent, 35% of the Moon is Illuminated
Jan 6
Waxing Crescent
Jan 7
First Quarter
Jan 15
Full
Jan 23
Last Quarter
Jan 30
New

Hourly Weather History & Observations

Time (CST) Temp. Windchill Dew Point Humidity Pressure Visibility Wind Dir Wind Speed Gust Speed Precip Events Conditions
12:15 AM -7.6 °F -30.5 °F -18.4 °F 59% 29.98 in 10.0 mi WNW 17.3 mph 25.3 mph N/A   Clear
12:35 AM -9.4 °F -33.5 °F -20.2 °F 59% 29.98 in 10.0 mi WNW 18.4 mph 25.3 mph N/A   Clear
1:55 AM -9.4 °F -34.1 °F -20.2 °F 59% 29.98 in 10.0 mi WNW 19.6 mph 25.3 mph N/A   Overcast
2:55 AM -9.4 °F -34.7 °F -22.0 °F 54% 29.99 in 10.0 mi NW 20.7 mph 27.6 mph N/A   Overcast
4:55 AM -13.0 °F -41.6 °F -23.8 °F 59% 30.00 in 10.0 mi WNW 25.3 mph 31.1 mph N/A   Overcast
5:20 AM -14.8 °F -44.0 °F -23.8 °F 64% 30.00 in 5.0 mi WNW 25.3 mph 32.2 mph N/A Snow Blowing Snow
5:45 AM -14.8 °F -41.8 °F -23.8 °F 64% 30.00 in 5.0 mi WNW 20.7 mph 26.5 mph N/A Snow Blowing Snow
6:45 AM -16.6 °F -45.9 °F -25.6 °F 64% 30.02 in 10.0 mi WNW 24.2 mph 32.2 mph N/A   Overcast
7:45 AM -16.6 °F -45.9 °F -25.6 °F 64% 30.03 in 5.0 mi WNW 24.2 mph 32.2 mph N/A Snow Blowing Snow
8:45 AM -18.4 °F -47.7 °F -27.4 °F 63% 30.04 in 7.0 mi WNW 23.0 mph 32.2 mph N/A   Mostly Cloudy
9:45 AM -18.4 °F -47.1 °F -29.2 °F 58% 30.05 in 10.0 mi West 21.9 mph 28.8 mph N/A   Scattered Clouds
10:45 AM -18.4 °F -51.7 °F -31.0 °F 53% 30.05 in 10.0 mi West 32.2 mph 32.2 mph N/A   Scattered Clouds
11:45 AM -18.4 °F -47.1 °F -29.2 °F 58% 30.03 in 7.0 mi West 21.9 mph 28.8 mph N/A   Mostly Cloudy
12:45 PM -16.6 °F -45.3 °F -29.2 °F 53% 30.03 in 7.0 mi West 23.0 mph 29.9 mph N/A   Mostly Cloudy
1:45 PM -16.6 °F -42.9 °F -29.2 °F 53% 30.02 in 10.0 mi West 18.4 mph 25.3 mph N/A   Mostly Cloudy
2:45 PM -14.8 °F -41.8 °F -27.4 °F 53% 30.03 in 10.0 mi West 20.7 mph - N/A   Mostly Cloudy
3:45 PM -16.6 °F -43.5 °F -27.4 °F 58% 30.05 in 10.0 mi West 19.6 mph 25.3 mph N/A   Scattered Clouds
4:45 PM -16.6 °F -42.1 °F -27.4 °F 58% 30.05 in 10.0 mi West 17.3 mph 23.0 mph N/A   Scattered Clouds
5:45 PM -16.6 °F -41.4 °F -27.4 °F 58% 30.06 in 10.0 mi West 16.1 mph 24.2 mph N/A   Partly Cloudy
6:45 PM -16.6 °F -42.1 °F -27.4 °F 58% 30.07 in 10.0 mi West 17.3 mph - N/A   Partly Cloudy
7:45 PM -16.6 °F -42.1 °F -27.4 °F 58% 30.07 in 10.0 mi West 17.3 mph - N/A   Partly Cloudy
8:45 PM -16.6 °F -44.1 °F -27.4 °F 58% 30.07 in 10.0 mi West 20.7 mph - N/A   Partly Cloudy
9:45 PM -16.6 °F -42.1 °F -25.6 °F 64% 30.06 in 10.0 mi West 17.3 mph 23.0 mph N/A   Partly Cloudy
10:45 PM -16.6 °F -42.1 °F -25.6 °F 64% 30.06 in 10.0 mi West 17.3 mph - N/A   Mostly Cloudy
11:35 PM -16.6 °F -41.4 °F -25.6 °F 64% 30.06 in 10.0 mi West 16.1 mph - N/A   Clear
11:55 PM -16.6 °F -38.9 °F -25.6 °F 64% 30.05 in 10.0 mi West 12.7 mph - N/A   Clear